Latest Coastal Weather Observations for Orbost

IDV60701

Issued at 6:21 am EDT Friday 12 February 2016 (issued every 10 minutes, with the page automatically refreshed every 10 minutes)

About coastal observations | Map of coastal stations | Coastal observations for VIC | Marine services | Other Formats
Station Details ID: 084145 Name: ORBOST Lat: -37.69 Lon: 148.47 Height: 62.65 m
Data from the previous 72 hours. | See also: Recent months at Orbost
Date/Time
EDT
Temp

°C
Wind Pressure Rain
since 9am
mm
Weather Cloud Vis
km
Sea
Height
m
Swell
Dir
 
Speed
knots
Gust
knots
hPa Trend Height
m
Period
s
Dir
12/06:00am 16.7 CALM 0 0 1015.6 - 0.0 - - - - - - -
12/05:30am 16.8 CALM 0 0 1015.5 - 0.0 - - - - - - -
12/05:00am 16.6 CALM 0 0 1015.3 - 0.0 - - - - - - -
12/04:30am 16.8 CALM 0 0 1015.4 - 0.0 - - - - - - -
12/04:00am 17.2 CALM 0 0 1015.6 - 0.0 - - - - - - -
12/03:30am 17.6 CALM 0 0 1015.9 - 0.0 - - - - - - -
12/03:00am 17.4 N 2 3 1016.2 - 0.0 - - - - - - -
12/02:30am 17.2 N 1 2 1016.4 - 0.0 - - - - - - -
12/02:00am 17.1 CALM 0 0 1016.6 - 0.0 - - - - - - -
12/01:30am 17.5 CALM 0 0 1016.8 - 0.0 - - - - - - -
12/01:00am 17.6 CALM 0 0 1017.0 - 0.0 - - - - - - -
12/12:30am 17.5 NW 1 2 1017.1 - 0.0 - - - - - - -
12/12:00am 17.5 CALM 0 0 1017.2 - 0.0 - - - - - - -
 
Date/Time
EDT
Temp

°C
Wind Pressure Rain
since 9am
mm
Weather Cloud Vis
km
Sea
Height
m
Swell
Dir
 
Speed
knots
Gust
knots
hPa Trend Height
m
Period
s
Dir
11/11:30pm 17.6 WNW 1 1 1017.4 - 0.0 - - - - - - -
11/11:00pm 18.2 NNE 2 3 1017.7 - 0.0 - - - - - - -
11/10:30pm 18.0 N 2 3 1017.8 - 0.0 - - - - - - -
11/10:00pm 18.5 CALM 0 0 1017.5 - 0.0 - - - - - - -
11/09:30pm 18.7 CALM 0 0 1017.2 - 0.0 - - - - - - -
11/09:00pm 19.1 CALM 0 1 1017.1 - 0.0 - - - - - - -
11/08:30pm 19.3 E 2 4 1016.9 - 0.0 - - - - - - -
11/08:00pm 19.5 SSE 1 2 1016.4 - 0.0 - - - - - - -
11/07:30pm 19.6 SE 2 4 1016.2 - 0.0 - - - - - - -
11/07:00pm 19.8 ESE 3 5 1015.9 - 0.0 - - - - - - -
11/06:30pm 19.8 SSE 3 5 1015.7 - 0.0 - - - - - - -
11/06:00pm 19.8 SSE 4 7 1015.6 - 0.0 - - - - - - -
11/05:30pm 20.3 SE 4 8 1015.1 - 0.0 - - - - - - -
11/05:00pm 21.3 SSE 5 10 1014.9 - 0.0 - - - - - - -
11/04:30pm 22.0 SE 4 8 1014.9 - 0.0 - - - - - - -
11/04:00pm 21.6 SSE 5 10 1014.9 - 0.0 - - - - - - -
11/03:30pm 22.1 S 5 9 1015.1 - 0.0 - - - - - - -
11/03:00pm 21.7 SE 4 6 1015.3 - 0.0 - - - - - - -
11/02:30pm 22.0 ESE 3 8 1015.6 - 0.0 - - - - - - -
11/02:00pm 21.5 SW 2 4 1016.0 - 0.0 - - - - - - -
11/01:30pm 20.5 SSE 2 4 1016.5 - 0.0 - - - - - - -
11/01:00pm 20.3 S 3 5 1016.8 - 0.0 - - - - - - -
11/12:30pm 20.4 SW 3 6 1017.1 - 0.0 - - - - - - -
11/12:00pm 19.8 SW 1 3 1017.4 - 0.0 - - - - - - -
11/11:30am 19.2 WSW 1 3 1017.4 - 0.0 - - - - - - -
11/11:00am 18.8 WNW 2 3 1017.4 - 0.0 - - - - - - -
11/10:30am 18.7 WNW 1 3 1017.5 - 0.0 - - - - - - -
11/10:00am 18.1 NW 2 4 1017.6 - 0.0 - - - - - - -
11/09:30am 17.7 NW 1 3 1017.5 - 0.0 - - - - - - -
11/09:00am 17.3 N 3 3 1017.4 - 0.0 - - - - - - -
11/08:30am 16.9 NW 2 3 1017.3 - 0.0 - - - - - - -
11/08:00am 17.1 WSW 2 3 1017.0 - 0.0 - - - - - - -
11/07:30am 17.2 CALM 0 1 1016.7 - 0.0 - - - - - - -
11/07:00am 17.1 N 2 2 1016.2 - 0.0 - - - - - - -
11/06:30am 17.1 N 2 2 1015.9 - 0.0 - - - - - - -
11/06:00am 17.1 N 2 3 1015.7 - 0.0 - - - - - - -
11/05:30am 17.0 NNW 1 2 1015.4 - 0.0 - - - - - - -
11/05:00am 16.9 N 3 3 1015.2 - 0.0 - - - - - - -
11/04:30am 16.7 N 1 2 1015.2 - 0.0 - - - - - - -
11/04:00am 16.5 N 1 2 1015.2 - 0.0 - - - - - - -
11/03:30am 16.4 N 2 2 1015.0 - 0.0 - - - - - - -
11/03:00am 16.1 N 2 3 1015.0 - 0.0 - - - - - - -
11/02:30am 16.2 NNW 2 2 1015.2 - 0.0 - - - - - - -
11/02:00am 16.2 N 3 3 1015.4 - 0.0 - - - - - - -
11/01:30am 15.7 N 4 5 1015.6 - 0.0 - - - - - - -
11/01:00am 15.2 N 3 3 1015.6 - 0.0 - - - - - - -
11/12:30am 15.6 N 2 3 1015.6 - 0.0 - - - - - - -
11/12:00am 15.7 N 1 2 1015.6 - 0.0 - - - - - - -
 
Date/Time
EDT
Temp

°C
Wind Pressure Rain
since 9am
mm
Weather Cloud Vis
km
Sea
Height
m
Swell
Dir
 
Speed
knots
Gust
knots
hPa Trend Height
m
Period
s
Dir
10/11:30pm 15.8 CALM 0 0 1015.5 - 0.0 - - - - - - -
10/11:00pm 16.3 CALM 0 0 1015.7 - 0.0 - - - - - - -
10/10:30pm 16.6 CALM 0 0 1015.7 - 0.0 - - - - - - -
10/10:00pm 16.9 CALM 0 0 1015.7 - 0.0 - - - - - - -
10/09:30pm 17.4 CALM 0 0 1015.5 - 0.0 - - - - - - -
10/09:00pm 17.8 CALM 0 0 1015.4 - 0.0 - - - - - - -
10/08:30pm 18.3 E 1 1 1015.1 - 0.0 - - - - - - -
10/08:00pm 19.3 CALM 0 0 1014.8 - 0.0 - - - - - - -
10/07:30pm 20.3 SE 2 3 1014.6 - 0.0 - - - - - - -
10/07:00pm 20.4 SE 3 5 1014.4 - 0.0 - - - - - - -
10/06:30pm 20.8 SSE 3 5 1014.1 - 0.0 - - - - - - -
10/06:00pm 21.3 S 4 6 1013.9 - 0.0 - - - - - - -
10/05:30pm 21.9 SSW 6 9 1013.7 - 0.0 - - - - - - -
10/05:00pm 21.7 SSW 5 9 1013.6 - 0.0 - - - - - - -
10/04:30pm 22.0 S 3 7 1013.5 - 0.0 - - - - - - -
10/04:00pm 21.3 S 5 8 1013.6 - 0.0 - - - - - - -
10/03:30pm 20.8 S 6 8 1013.6 - 0.0 - - - - - - -
10/03:00pm 21.1 SSW 5 7 1013.8 - 0.0 - - - - - - -
10/02:30pm 21.3 SSW 4 7 1014.0 - 0.0 - - - - - - -
10/02:00pm 21.2 SW 4 7 1014.2 - 0.0 - - - - - - -
10/01:30pm 21.0 SSW 4 7 1014.3 - 0.0 - - - - - - -
10/01:00pm 20.9 SSW 5 7 1014.4 - 0.0 - - - - - - -
10/12:30pm 21.0 SSW 4 6 1014.7 - 0.0 - - - - - - -
10/12:00pm 20.5 SW 4 6 1014.9 - 0.0 - - - - - - -
10/11:30am 20.5 SW 4 5 1015.2 - 0.0 - - - - - - -
10/11:00am 20.7 SW 3 6 1015.3 - 0.0 - - - - - - -
10/10:30am 20.1 W 4 5 1015.2 - 0.0 - - - - - - -
10/10:00am 19.2 W 4 5 1015.3 - 0.0 - - - - - - -
10/09:30am 18.6 NW 4 5 1015.3 - 0.0 - - - - - - -
10/09:00am 17.9 WNW 4 5 1015.3 - 0.0 - - - - - - -
10/08:30am 17.7 WNW 3 5 1015.0 - 0.0 - - - - - - -
10/08:00am 17.7 NW 3 3 1014.6 - 0.0 - - - - - - -
10/07:30am 17.1 NNW 3 4 1014.3 - 0.0 - - - - - - -
10/07:00am 16.8 NW 2 3 1014.3 - 0.0 - - - - - - -
10/06:30am 16.3 NNW 2 2 1014.2 - 0.0 - - - - - - -
10/06:00am 15.2 NW 1 1 1014.2 - 0.0 - - - - - - -
10/05:30am 15.9 NW 1 1 1013.7 - 0.0 - - - - - - -
10/05:00am 15.8 NW 1 2 1013.5 - 0.0 - - - - - - -
10/04:30am 15.8 NW 1 2 1013.3 - 0.0 - - - - - - -
10/04:00am 16.2 N 2 3 1013.4 - 0.0 - - - - - - -
10/03:30am 16.4 CALM 0 0 1013.6 - 0.0 - - - - - - -
10/03:00am 16.6 CALM 0 0 1013.8 - 0.0 - - - - - - -
10/02:30am 16.8 CALM 0 0 1014.0 - 0.0 - - - - - - -
10/02:00am 16.9 CALM 0 0 1014.3 - 0.0 - - - - - - -
10/01:30am 17.5 CALM 0 1 1014.7 - 0.0 - - - - - - -
10/01:00am 17.4 NW 1 2 1015.1 - 0.0 - - - - - - -
10/12:30am 17.4 CALM 0 0 1015.5 - 0.0 - - - - - - -
10/12:00am 17.4 NNW 3 3 1015.6 - 0.0 - - - - - - -
 
Date/Time
EDT
Temp

°C
Wind Pressure Rain
since 9am
mm
Weather Cloud Vis
km
Sea
Height
m
Swell
Dir
 
Speed
knots
Gust
knots
hPa Trend Height
m
Period
s
Dir
09/11:30pm 17.8 NNW 4 6 1016.0 - 0.0 - - - - - - -
09/11:00pm 17.8 N 5 6 1016.5 - 0.0 - - - - - - -
09/10:30pm 18.0 NW 4 5 1016.7 - 0.0 - - - - - - -
09/10:00pm 18.3 NW 4 6 1016.9 - 0.0 - - - - - - -
09/09:30pm 18.4 NW 3 4 1016.8 - 0.0 - - - - - - -
09/09:00pm 18.1 WNW 2 3 1016.7 - 0.0 - - - - - - -
09/08:30pm 19.3 W 2 3 1016.6 - 0.0 - - - - - - -
09/08:00pm 20.6 SSW 3 5 1016.6 - 0.0 - - - - - - -
09/07:30pm 21.6 S 4 7 1016.5 - 0.0 - - - - - - -
09/07:00pm 22.4 SSE 5 7 1016.5 - 0.0 - - - - - - -
09/06:30pm 22.9 SSE 5 10 1016.4 - 0.0 - - - - - - -
09/06:00pm 23.1 SSE 6 10 1016.5 - 0.0 - - - - - - -
09/05:30pm 23.2 SSE 6 9 1016.7 - 0.0 - - - - - - -
09/05:00pm 23.1 SSE 7 13 1017.1 - 0.0 - - - - - - -
09/04:30pm 23.5 SSE 9 13 1017.4 - 0.0 - - - - - - -
09/04:00pm 23.0 SSE 8 14 1017.7 - 0.0 - - - - - - -
09/03:30pm 23.0 SSE 9 17 1017.9 - 0.0 - - - - - - -
09/03:00pm 23.1 SSE 10 16 1018.3 - 0.0 - - - - - - -
09/02:30pm 23.3 SSE 8 13 1018.8 - 0.0 - - - - - - -
09/02:00pm 23.6 SSE 7 11 1019.2 - 0.0 - - - - - - -
09/01:30pm 22.8 SSE 7 11 1019.4 - 0.0 - - - - - - -
09/01:00pm 22.6 SSE 7 14 1019.8 - 0.0 - - - - - - -
09/12:30pm 22.6 S 7 13 1020.0 - 0.0 - - - - - - -
09/12:00pm 22.3 SSE 6 10 1020.5 - 0.0 - - - - - - -
09/11:30am 22.6 SSE 6 10 1020.8 - 0.0 - - - - - - -
09/11:00am 21.7 SE 4 9 1021.1 - 0.0 - - - - - - -
09/10:30am 21.3 SSE 4 6 1021.5 - 0.0 - - - - - - -
09/10:00am 20.6 E 3 5 1021.9 - 0.0 - - - - - - -
09/09:30am 19.7 E 2 4 1022.0 - 0.0 - - - - - - -
09/09:00am 18.2 E 1 3 1022.2 - 0.0 - - - - - - -
09/08:30am 17.9 E 1 2 1022.1 - 0.0 - - - - - - -
09/08:00am 17.3 E 2 3 1022.0 - 0.0 - - - - - - -
09/07:30am 16.9 CALM 0 0 1021.9 - 0.0 - - - - - - -
09/07:00am 16.5 CALM 0 0 1021.8 - 0.0 - - - - - - -
09/06:30am 16.6 CALM 0 0 1021.5 - 0.0 - - - - - - -

Other Formats:

Comma delimited format used in spreadsheet applications
http://www.bom.gov.au/fwo/IDV60701/IDV60701.95918.axf

JavaScript Object Notation format (JSON) in row-major order
http://www.bom.gov.au/fwo/IDV60701/IDV60701.95918.json